Date String (YYYY-MM-DD hh:mm:ss) UTC,Instrument flags,absolute air pressure of the measurement (hPa),sample flow rate (lpm),inlet stack bypass flow (lpm),air temperature of the measurement (°C),ambient temperature measured by the external sensor (°C),aerosol sample conditioner tube jacket temperature (°C),OPC LED temperature (°C),internal box temperature (°C),relative humidity of the measurement (%),span deviation,mass concentration of particles derived from Lorenz-Mie calculation of OPC scattering (μg/m³),mass concentration of particles derived from Lorenz-Mie calculation of OPC scattering (μg/m³),mass concentration of particles derived from Lorenz-Mie calculation of OPC scattering (μg/m³)
DateTimeUTC,F1_M11,P_M11,Q1_M11,Q2_M11,T1_M11,T2_M11,T3_M11,T4_M11,T5_M11,U1_M11,ZSPAN_M11,X0_M11,X2_M11,X1_M11
2023-06-08 07:00:00,SystemResetWarning,0830.0,5.00,000.00,030.1,028.4,000.0,038.7,031.6,22.9,0000.0,0004.43,0002.51,0001.89
2023-06-08 07:01:00,SystemResetWarning,0830.0,4.98,000.00,030.1,028.4,000.0,038.7,031.6,22.9,0000.0,0004.51,0002.48,0001.89
2023-06-08 07:02:00,SystemResetWarning,0830.0,5.00,000.00,030.1,028.4,000.0,038.7,031.6,22.9,0000.0,0004.45,0002.46,0001.89
2023-06-08 07:03:00,SystemResetWarning,0830.0,5.00,000.00,030.1,028.4,000.0,038.7,031.6,22.9,0000.0,0004.55,0002.50,0001.89
2023-06-08 07:04:00,SystemResetWarning,0830.0,5.00,000.00,030.1,028.4,000.0,038.7,031.6,22.9,0000.0,0004.63,0002.52,0001.90
2023-06-08 07:05:00,SystemResetWarning,0830.0,5.01,000.00,030.1,028.4,000.0,038.7,031.5,22.9,0000.0,0004.58,0002.52,0001.90
2023-06-08 07:06:00,SystemResetWarning,0830.0,4.98,000.00,030.1,028.4,000.0,038.7,031.6,22.9,0000.0,0004.43,0002.52,0001.90
2023-06-08 07:07:00,SystemResetWarning,0830.0,5.02,000.00,030.1,028.4,000.0,038.7,031.6,22.9,0000.0,0004.33,0002.51,0001.91
2023-06-08 07:08:00,SystemResetWarning,0830.0,5.00,000.00,030.1,028.4,000.0,038.7,031.6,22.9,0000.0,0004.91,0002.54,0001.92
2023-06-08 07:09:00,SystemResetWarning,0830.0,4.99,000.00,030.1,028.4,000.0,038.7,031.6,22.9,0000.0,0005.08,0002.64,0001.93
2023-06-08 07:10:00,SystemResetWarning,0830.0,5.02,000.00,030.1,028.4,000.0,038.7,031.6,22.9,0000.0,0005.06,0002.66,0001.92
2023-06-08 07:11:00,SystemResetWarning,0830.0,5.01,000.00,030.1,028.3,000.0,038.7,031.5,22.8,0000.0,0004.91,0002.64,0001.92
2023-06-08 07:12:00,SystemResetWarning,0830.0,4.99,000.00,030.1,028.3,000.0,038.7,031.5,22.8,0000.0,0005.19,0002.70,0001.93
2023-06-08 07:13:00,SystemResetWarning,0830.0,4.99,000.00,030.1,028.3,000.0,038.7,031.5,22.8,0000.0,0005.41,0002.71,0001.93
2023-06-08 07:14:00,SystemResetWarning,0830.0,5.01,000.00,030.1,028.3,000.0,038.7,031.5,22.7,0000.0,0005.18,0002.63,0001.92
2023-06-08 07:15:00,SystemResetWarning,0829.9,5.00,000.00,030.1,028.3,000.0,038.7,031.6,22.6,0000.0,0005.05,0002.58,0001.90
2023-06-08 07:16:00,SystemResetWarning,0829.9,5.00,000.00,030.1,028.3,000.0,038.7,031.5,22.6,0000.0,0005.16,0002.59,0001.90
2023-06-08 07:17:00,SystemResetWarning,0829.9,4.99,000.00,030.1,028.3,000.0,038.7,031.5,22.6,0000.0,0005.15,0002.56,0001.90
2023-06-08 07:18:00,SystemResetWarning,0829.8,5.00,000.00,030.1,028.3,000.0,038.7,031.5,22.6,0000.0,0005.08,0002.51,0001.89
2023-06-08 07:19:00,SystemResetWarning,0829.8,5.01,000.00,030.1,028.3,000.0,038.7,031.5,22.6,0000.0,0004.47,0002.48,0001.88
2023-06-08 07:20:00,SystemResetWarning,0829.9,5.00,000.00,030.1,028.3,000.0,038.7,031.5,22.6,0000.0,0004.19,0002.38,0001.86
2023-06-08 07:21:00,SystemResetWarning,0829.8,5.00,000.00,030.1,028.3,000.0,038.7,031.5,22.5,0000.0,0004.07,0002.33,0001.84
2023-06-08 07:22:00,SystemResetWarning,0829.8,5.00,000.00,030.1,028.3,000.0,038.7,031.5,22.5,0000.0,0004.05,0002.34,0001.84
2023-06-08 07:23:00,SystemResetWarning,0829.8,4.99,000.00,030.1,028.3,000.0,038.7,031.5,22.4,0000.0,0004.32,0002.28,0001.83
2023-06-08 07:24:00,SystemResetWarning,0829.8,5.01,000.00,030.1,028.3,000.0,038.7,031.4,22.3,0000.0,0004.12,0002.25,0001.82
2023-06-08 07:25:00,SystemResetWarning,0829.8,4.98,000.00,030.0,028.3,000.0,038.7,031.4,22.3,0000.0,0004.25,0002.23,0001.82
2023-06-08 07:26:00,SystemResetWarning,0829.8,5.00,000.00,030.0,028.3,000.0,038.7,031.4,22.3,0000.0,0004.19,0002.20,0001.81
2023-06-08 07:27:00,SystemResetWarning,0829.7,5.01,000.00,030.0,028.3,000.0,038.7,031.5,22.4,0000.0,0004.08,0002.16,0001.79
2023-06-08 07:28:00,SystemResetWarning,0829.7,4.99,000.00,030.0,028.3,000.0,038.7,031.5,22.4,0000.0,0004.03,0002.15,0001.78
2023-06-08 07:29:00,SystemResetWarning,0829.7,5.00,000.00,030.0,028.3,000.0,038.7,031.4,22.3,0000.0,0004.05,0002.14,0001.76
2023-06-08 07:30:00,SystemResetWarning,0829.7,5.01,000.00,030.0,028.3,000.0,038.7,031.4,22.4,0000.0,0003.98,0002.11,0001.75
2023-06-08 07:31:00,SystemResetWarning,0829.7,4.98,000.00,030.0,028.3,000.0,038.7,031.4,22.4,0000.0,0004.02,0002.12,0001.76
2023-06-08 07:32:00,SystemResetWarning,0829.7,5.03,000.00,030.0,028.2,000.0,038.7,031.4,22.3,0000.0,0004.13,0002.17,0001.77
2023-06-08 07:33:00,SystemResetWarning,0829.7,5.00,000.00,030.0,028.2,000.0,038.7,031.4,22.3,0000.0,0004.16,0002.17,0001.77
2023-06-08 07:34:00,SystemResetWarning,0829.7,4.99,000.00,030.0,028.2,000.0,038.6,031.4,22.3,0000.0,0004.03,0002.16,0001.77
2023-06-08 07:35:00,SystemResetWarning,0829.7,5.00,000.00,030.0,028.2,000.0,038.6,031.4,22.3,0000.0,0004.12,0002.15,0001.75
2023-06-08 07:36:00,SystemResetWarning,0829.7,5.00,000.00,030.0,028.2,000.0,038.6,031.4,22.3,0000.0,0003.97,0002.19,0001.76
2023-06-08 07:37:00,SystemResetWarning,0829.7,5.00,000.00,030.0,028.2,000.0,038.6,031.4,22.3,0000.0,0004.13,0002.25,0001.77
2023-06-08 07:38:00,SystemResetWarning,0829.7,5.00,000.00,030.0,028.2,000.0,038.6,031.4,22.3,0000.0,0005.09,0002.26,0001.78
2023-06-08 07:39:00,SystemResetWarning,0829.7,5.01,000.00,030.0,028.2,000.0,038.6,031.4,22.2,0000.0,0005.09,0002.26,0001.78
2023-06-08 07:40:00,SystemResetWarning,0829.7,5.01,000.00,030.0,028.2,000.0,038.6,031.4,22.3,0000.0,0005.08,0002.28,0001.79
2023-06-08 07:41:00,SystemResetWarning,0829.7,4.99,000.00,030.0,028.2,000.0,038.6,031.4,22.3,0000.0,0005.23,0002.32,0001.80
2023-06-08 07:42:00,SystemResetWarning,0829.7,4.99,000.00,030.0,028.2,000.0,038.6,031.4,22.4,0000.0,0005.30,0002.32,0001.79
2023-06-08 07:43:00,SystemResetWarning,0829.7,5.01,000.00,030.0,028.2,000.0,038.6,031.4,22.4,0000.0,0005.62,0002.31,0001.79
2023-06-08 07:44:00,SystemResetWarning,0829.7,5.01,000.00,029.9,028.2,000.0,038.6,031.4,22.4,0000.0,0005.76,0002.33,0001.78
2023-06-08 07:45:00,SystemResetWarning,0829.7,5.00,000.00,029.9,028.2,000.0,038.6,031.4,22.5,0000.0,0005.35,0002.33,0001.79
2023-06-08 07:46:00,SystemResetWarning,0829.6,5.00,000.00,029.9,028.2,000.0,038.6,031.4,22.5,0000.0,0005.05,0002.37,0001.81
2023-06-08 07:47:00,SystemResetWarning,0829.7,4.99,000.00,029.9,028.2,000.0,038.6,031.3,22.6,0000.0,0005.10,0002.38,0001.81
2023-06-08 07:48:00,SystemResetWarning,0829.6,5.00,000.00,029.9,028.2,000.0,038.6,031.3,22.6,0000.0,0005.03,0002.34,0001.81
2023-06-08 07:49:00,SystemResetWarning,0829.6,5.01,000.00,029.9,028.2,000.0,038.6,031.3,22.6,0000.0,0004.06,0002.32,0001.81
2023-06-08 07:50:00,SystemResetWarning,0829.6,5.01,000.00,029.9,028.2,000.0,038.6,031.3,22.6,0000.0,0003.94,0002.31,0001.80
2023-06-08 07:51:00,SystemResetWarning,0829.6,5.00,000.00,029.9,028.1,000.0,038.5,031.3,22.6,0000.0,0004.08,0002.35,0001.81
2023-06-08 07:52:00,SystemResetWarning,0829.6,5.00,000.00,029.9,028.1,000.0,038.5,031.3,22.6,0000.0,0004.07,0002.36,0001.81
2023-06-08 07:53:00,SystemResetWarning,0829.6,5.00,000.00,029.9,028.1,000.0,038.5,031.3,22.6,0000.0,0004.08,0002.36,0001.83
2023-06-08 07:54:00,SystemResetWarning,0829.6,5.01,000.00,029.9,028.1,000.0,038.5,031.3,22.5,0000.0,0003.62,0002.33,0001.83
2023-06-08 07:55:00,SystemResetWarning,0829.7,5.00,000.00,029.9,028.1,000.0,038.5,031.3,22.6,0000.0,0003.39,0002.28,0001.84
2023-06-08 07:56:00,SystemResetWarning,0829.7,5.00,000.00,029.9,028.1,000.0,038.5,031.3,22.6,0000.0,0003.37,0002.28,0001.83
2023-06-08 07:57:00,SystemResetWarning,0829.7,5.00,000.00,029.9,028.1,000.0,038.5,031.3,22.5,0000.0,0003.41,0002.27,0001.84
2023-06-08 07:58:00,SystemResetWarning,0829.7,4.99,000.00,029.9,028.1,000.0,038.5,031.3,22.5,0000.0,0003.27,0002.21,0001.83
2023-06-08 07:59:00,SystemResetWarning,0829.7,5.00,000.00,029.8,028.1,000.0,038.5,031.3,22.5,0000.0,0003.26,0002.23,0001.84
